STEP CUBE LAB-II

Satellite information

Favourite Embed

Satellite Type and Status

PAYLOADIN ORBIT

Key statistics

Satellite STEP CUBE LAB-II at a glance.

Uptime

1275

Days in orbit

Revolutions

≈ 14.6

Per day

Orbit

SSO

Sun Synchronous Orbit

Inclination

98.2

Latest

Satellite identification and parameters

Extended collection of information and parameters for STEP CUBE LAB-II.

Object identification

Identified? True

Debris? False

Object name: STEP CUBE LAB-II

International designator: 2022-065D

Object number (NORAD): 52897

Object ID (CCSDS): 52897

Country: SOUTH KOREA (SKOR)

Current information (Y/N): Y

RCS size: MEDIUM

Orbital parameters

Period: 98.435 minutes

Inclination: 98.194 deg

SMA: 7062.004 km

Apoapsis: 689.25 km

Periapsis: 678.489 km

RAAN: 129.7436 deg

Eccentricy: 0.00076194

Argument of periapsis: 235.4234 deg

Mean anomaly: 124.6249 deg

Mean motion: 14.62887004 rev/day

Mean motion (dot): 0.00001345 rev/day2

B* drag term: 0.00027237406 1/REarth

Two-line elements (TLE)

Creation date: Dec. 16, 2025, 2:19 a.m.

Reference frame: TEME

Reference center: EARTH

Epoch: Dec. 15, 2025, 10:12 p.m. UTC

TLE line 0: 0 STEP CUBE LAB-II

TLE line 1: 1 52897U 22065D 25349.92502979 .00001345 00000-0 27237-3 0 9999

TLE line 2: 2 52897 98.1940 129.7436 0007619 235.4234 124.6249 14.62887004184700

Live tracking on map

Real-time ground track for satellite STEP CUBE LAB-II.

In-orbit conjunctions

There are no conjunctions computed for STEP CUBE LAB-II, at the moment. Check back to stay up to date, as we update our databases every day.

Go to all conjunctions

Associated space launch

Second flight of the KSLV-II "Nuri" launch vehicle, carrying a dummy satellite Payload of 1500 kg to sun-synchronous orbit. The mission will in addition launch the performance verification satellite (PVSAT) and four Cubesats: - CubeSat (6U) STEP Cube Lab-II - CubeSat (3U) SNUGLITE-II - CubeSat (3U) MIMAN - CubeSat (3U) RANDEV

STEP CUBE LAB-II was lifted into orbit during the mission ‘Nuri | Flight Test 2’, on board a Nuri space rocket.

The launch took place on June 21, 2022, 7 a.m. from LC-2.

For more information about the launch, click the button.

Launch to space Nuri | Flight Test 2
Nuri | Flight Test 2

Agency: N/A

Status: Launch Successful

Launch date: June 21, 2022, 7 a.m. UTC

Rocket: Nuri

Launch pad: LC-2

Location: Naro Space Center, South Korea

...

Latest news about this satellite

News about space launch
KARI reaches orbit on second test flight of domestic Nuri rocket

The Korean Aerospace Research Institute (KARI) has conducted its second launch of the Korea Space Launch Vehicle (KSLV)-II rocket, also known as Nuri. This was Nuri’s return to flight after nearly reaching orbit on its previous mission. The rocket lifted ...

News about space launch
South Korean rocket puts satellites in orbit for the first time in second flight

South Korea’s homegrown rocket KSLV-2 successfully put satellites into low Earth orbit for the first time in its second flight June 21.


Newsletter sign-up

Weekly statistics, charts and insights to help you stay on top of the space industry.